Regional Weather Roundup
Issued by NWS

Home | Current Version | Previous Version | Graphics & Text | Print | Product List | Glossary Off
Versions: 1 2 3 4 5 6 7 8 9 10 11 12 13 14 15 16 17 18 19 20 21 22 23 24 25 26 27 28 29 30 31 32 33 34 35 36 37 38 39 40 41 42 43 44 45 46 47 48 49 50

000
ASUS43 KDMX 170606
RWRIA

WEATHER ROUNDUP FOR IOWA
NATIONAL WEATHER SERVICE DES MOINES IA
1200 AM CST SAT FEB 17 2018

NOTE: "FAIR" INDICATES FEW OR NO CLOUDS BELOW 12,000 FEET WITH NO
SIGNIFICANT WEATHER AND/OR OBSTRUCTIONS TO VISIBILITY.

* - THESE STATIONS ARE NOT NWS STATIONS...THUS NOT UNDER NWS
QUALITY CONTROL.  THEY ALSO DO NOT REPORT WEATHER SUCH
AS PRECIPITATION OR FOG.

IAZ001>003-012>014-020>022-031>034-043>046-170700-
   NORTHWEST IOWA

CITY           SKY/WX    TMP DP  RH WIND       PRES   REMARKS
CARROLL *      CLOUDY    25  16  68 S12       30.07F WCI  14
CHEROKEE *     PTCLDY    24  14  66 S13       30.02F WCI  12
DENISON *      CLOUDY    23  14  68 S12       30.08S WCI  12
LE MARS *      CLOUDY    25  16  68 S12       30.00F WCI  14
ORANGE CITY *  CLOUDY    25  18  74 S14       29.97F WCI  13
SHELDON *      CLOUDY    23  16  74 S16G23    29.95F WCI  10
SIOUX CITY     CLOUDY    25  14  63 SE8       30.03F WCI  16
6HR MIN TEMP:  21; 6HR MAX TEMP:  27;

SPENCER        CLOUDY    23  13  65 S13       30.00F WCI  11
6HR MIN TEMP:  12; 6HR MAX TEMP:  23;

STORM LAKE *   CLOUDY    21  14  73 S14       30.02F WCI   8
$$

IAZ055>058-069>071-079>083-090>094-170700-
   SOUTHWEST IOWA

CITY           SKY/WX    TMP DP  RH WIND       PRES   REMARKS
ATLANTIC *     CLOUDY    23  14  68 S9        30.10F WCI  13
AUDUBON *      CLOUDY    25  12  58 S10       30.08F WCI  15
CLARINDA *     CLOUDY    25  18  74 S5        30.15F WCI  19
COUNCIL BLFS * CLOUDY    28  12  50 S10G18    30.08F WCI  19
CRESTON *      CLOUDY    23  12  63 S12       30.13F WCI  12
HARLAN  *      CLOUDY    23  14  68 S10       30.12F WCI  12
LAMONI         CLOUDY    23   6  48 S10       30.13F WCI  12
6HR MIN TEMP:  23; 6HR MAX TEMP:  28;

RED OAK *      CLOUDY    27  16  63 S6        30.12F WCI  20
SHENANDOAH *   CLOUDY    28  14  54 S12       30.12F WCI  18
$$

IAZ047>049-059>061-072>074-084-170700-
   CENTRAL IOWA

CITY           SKY/WX    TMP DP  RH WIND       PRES   REMARKS
AMES           CLOUDY    17   9  70 S8        30.12F WCI   7
6HR MIN TEMP:  16; 6HR MAX TEMP:  19;

ANKENY *       PTCLDY    19  12  73 S3        30.16S
BOONE *        CLOUDY    21  14  73 S7        30.10F WCI  13
CHARITON *     CLOUDY    21  10  63 S8        30.15S WCI  12
DES MOINES     CLOUDY    22  10  60 S7        30.15S WCI  13
6HR MIN TEMP:  22; 6HR MAX TEMP:  25;

GRINNELL*      CLOUDY    18  10  72 S10       30.17F WCI   6
KNOXVILLE *    MOCLDY    21   7  53 SE7       30.15F WCI  13
MARSHALLTOWN   CLOUDY    18   9  68 S10       30.14F WCI   6
6HR MIN TEMP:  17; 6HR MAX TEMP:  20;

NEWTON *       CLOUDY    18  10  73 S8        30.16F WCI   7
PELLA *        CLOUDY    19  10  67 SE7       30.18F WCI  10
PERRY *        FAIR      19  16  86 SE7       30.11F WCI  10
$$

IAZ004>006-015-016-023>025-035-036-170700-
   NORTH CENTRAL IOWA

CITY           SKY/WX    TMP DP  RH WIND       PRES   REMARKS
ALGONA *       CLOUDY    19 N/A N/A S18       30.03F WCI   4
CLARION *      PTCLDY    16  14  93 S15       30.07F WCI   1
ESTHERVILLE    CLOUDY    17  12  80 S17       29.99F WCI   1
6HR MIN TEMP:  12; 6HR MAX TEMP:  17;

FORT DODGE *   CLOUDY    22  13  68 S14       30.07F WCI   9
MASON CITY     CLOUDY    18   9  68 S12       30.07F WCI   5
6HR MIN TEMP:  12; 6HR MAX TEMP:  18;

FOREST CITY *  FAIR      21  14  73 S12       30.04F WCI   9
WEBSTER CITY * CLOUDY    16   9  73 SE8       30.07F WCI   5
IOWA FALLS *   FAIR      15   9  76 S9        30.11F WCI   3
$$

IAZ007>011-017>019-026>030-037>042-050>054-066-170700-
   NORTHEAST IOWA

CITY           SKY/WX    TMP DP  RH WIND       PRES   REMARKS
CEDAR RAPIDS   FAIR      17   9  70 S9        30.17F WCI   6
6HR MIN TEMP:  14; 6HR MAX TEMP:  21;

CHARLES CITY * FAIR      16   7  67 S13       30.10F WCI   2
CLINTON *      FAIR      13   7  77 S7        30.24F WCI   3
DECORAH *      FAIR      12   7  79 S7        30.10F WCI   2
DUBUQUE        FAIR      12   4  70 S9        30.17F WCI   0
6HR MIN TEMP:   9; 6HR MAX TEMP:  14;

MONTICELLO *   FAIR      12   7  79 SE5       30.19F WCI   4
OELWEIN *      MOCLDY    12   9  85 S10       30.14F WCI  -1
WATERLOO       FAIR      14   8  77 S8        30.13F WCI   3
6HR MIN TEMP:   8; 6HR MAX TEMP:  14;

$$

IAZ064-065-067-068-078-170700-
   EAST CENTRAL IOWA

CITY           SKY/WX    TMP DP  RH WIND       PRES   REMARKS
DAVENPORT      FAIR      15   8  73 S7        30.25F WCI   5
6HR MIN TEMP:  14; 6HR MAX TEMP:  22;

IOWA CITY      FAIR      14   7  73 SE3       30.23F
6HR MIN TEMP:  14; 6HR MAX TEMP:  23;

MT. PLEASANT * CLOUDY    19  12  73 SE7       30.23F WCI  10
MUSCATINE *    FAIR      12   9  85 CALM      30.25F
QUAD CITIES    FAIR      12   8  84 CALM      30.24F
6HR MIN TEMP:  12; 6HR MAX TEMP:  23;

$$

IAZ062-063-075>077-085>089-095>099-170700-
   SOUTHEAST IOWA

CITY           SKY/WX    TMP DP  RH WIND       PRES   REMARKS
BURLINGTON     CLOUDY    19  12  74 S3        30.24F
6HR MIN TEMP:  19; 6HR MAX TEMP:  26;

FAIRFIELD *    CLOUDY    18  10  73 SE6       30.20F WCI   9
FORT MADISON * CLOUDY    21  14  73 SE3       30.24F
KEOKUK *       PTCLDY    21  14  73 SE6       30.24F WCI  14
OSKALOOSA *    FAIR      16  10  77 SE10      30.19F WCI   4
OTTUMWA        CLOUDY    21   9  59 SE9       30.19F WCI  11
6HR MIN TEMP:  16; 6HR MAX TEMP:  21;

WASHINGTON *   PTCLDY    14  12  92 S7        30.23F WCI   4
$$

ABBREVIATIONS USED IN REMARKS
   TC - TEMPERATURES IN CELSIUS
  WCI - WIND CHILL INDEX
   HX - HEAT INDEX
  VSB - VISIBILITY
$$





USA.gov is the U.S. government's official web portal to all federal, state and local government web resources and services.